K7SKM Weather Reports


Display with metric or nautical units.
time (UTC)temp
F
wind
direction
speed
MPH
gust
MPH
rain 1hr
in
rain 24hr
in
rain mn
in
humidity
%
barometer
mb
20260901153332 59 153 0.0 0.0 0.00 0.00 0.00 81 1015.2
20260901152830 58 168 0.0 0.0 0.00 0.00 0.00 81 1015.2
20260901152330 58 129 0.0 0.0 0.00 0.00 0.00 82 1015.3
20260901151826 57 127 0.0 0.0 0.00 0.00 0.00 82 1015.4
20260901151320 57 130 0.0 0.0 0.00 0.00 0.00 83 1015.3
20260901150819 57 145 0.0 0.0 0.00 0.00 0.00 83 1015.5
20260901150317 56 112 0.0 0.0 0.00 0.00 0.00 84 1015.4
20260901145810 56 143 0.0 0.0 0.00 0.00 0.00 84 1015.2
20260901145309 56 124 0.0 0.0 0.00 0.00 0.00 85 1015.1
20260901144804 55 148 0.0 0.0 0.00 0.00 0.00 85 1015.4
20260901144301 55 138 0.0 5.0 0.00 0.00 0.00 85 1015.2
20260901143756 55 146 3.0 7.0 0.00 0.00 0.00 86 1015.4
20260901143252 55 139 0.0 0.0 0.00 0.00 0.00 86 1015.1
20260901142749 55 133 0.0 5.0 0.00 0.00 0.00 86 1015.2
20260901142247 55 156 0.0 0.0 0.00 0.00 0.00 87 1015.1
20260901141742 54 141 0.0 0.0 0.00 0.00 0.00 87 1015.2
20260901141237 54 120 0.0 3.0 0.00 0.00 0.00 87 1015.0
20260901140736 54 125 0.0 0.0 0.00 0.00 0.00 87 1014.9
20260901140234 54 153 0.0 0.0 0.00 0.00 0.00 87 1014.9
20260901135730 54 153 0.0 3.0 0.00 0.00 0.00 87 1014.7
20260901135230 54 130 0.0 0.0 0.00 0.00 0.00 88 1014.6
20260901134725 53 164 0.0 0.0 0.00 0.00 0.00 88 1014.7
20260901134220 53 162 0.0 0.0 0.00 0.00 0.00 88 1014.8
20260901133720 53 180 0.0 0.0 0.00 0.00 0.00 87 1014.6
20260901133219 53 184 0.0 0.0 0.00 0.00 0.00 87 1014.6
20260901132717 53 177 0.0 0.0 0.00 0.00 0.00 87 1014.8
20260901132212 54 171 0.0 0.0 0.00 0.00 0.00 87 1014.8
20260901131707 54 166 0.0 0.0 0.00 0.00 0.00 87 1014.9
20260901131206 54 175 0.0 0.0 0.00 0.00 0.00 86 1014.7
20260901130702 54 171 0.0 0.0 0.00 0.00 0.00 86 1014.8
20260901130200 54 156 0.0 0.0 0.00 0.00 0.00 86 1014.8
20260901125658 54 138 0.0 0.0 0.00 0.00 0.00 86 1014.6
20260901125154 54 136 0.0 0.0 0.00 0.00 0.00 86 1014.6
20260901124649 54 150 0.0 0.0 0.00 0.00 0.00 86 1014.4
20260901124143 55 147 0.0 0.0 0.00 0.00 0.00 86 1014.6
20260901123638 55 187 0.0 0.0 0.00 0.00 0.00 86 1014.5
20260901123137 55 175 0.0 0.0 0.00 0.00 0.00 86 1014.4
20260901122636 55 138 0.0 0.0 0.00 0.00 0.00 86 1014.4
20260901122131 55 147 0.0 0.0 0.00 0.00 0.00 86 1014.3
20260901121625 55 142 0.0 0.0 0.00 0.00 0.00 86 1014.4
20260901121120 55 152 0.0 0.0 0.00 0.00 0.00 86 1014.4
20260901120615 55 165 0.0 0.0 0.00 0.00 0.00 86 1014.4
20260901120110 55 151 0.0 0.0 0.00 0.00 0.00 86 1014.3
20260901115605 55 140 0.0 0.0 0.00 0.00 0.00 86 1014.2
20260901115102 55 135 0.0 0.0 0.00 0.00 0.00 86 1014.4
20260901114558 55 146 0.0 0.0 0.00 0.00 0.00 86 1014.3
20260901114057 55 142 0.0 3.0 0.00 0.00 0.00 86 1014.3
20260901113555 55 140 0.0 0.0 0.00 0.00 0.00 86 1014.0
20260901113052 55 141 0.0 0.0 0.00 0.00 0.00 86 1014.0
20260901112551 55 187 0.0 0.0 0.00 0.00 0.00 86 1013.8
20260901112046 55 185 0.0 0.0 0.00 0.00 0.00 86 1014.0
20260901111544 55 154 0.0 0.0 0.00 0.00 0.00 86 1013.9
20260901111043 55 132 0.0 0.0 0.00 0.00 0.00 85 1013.8
20260901110539 55 143 0.0 0.0 0.00 0.00 0.00 85 1013.8
20260901110034 55 165 0.0 0.0 0.00 0.00 0.00 85 1013.8
20260901105532 55 176 0.0 0.0 0.00 0.00 0.00 85 1013.8
20260901105030 55 154 0.0 0.0 0.00 0.00 0.00 85 1014.0
20260901104527 55 177 0.0 0.0 0.00 0.00 0.00 85 1013.9
20260901104022 55 164 0.0 0.0 0.00 0.00 0.00 85 1013.9
20260901103516 55 174 0.0 0.0 0.00 0.00 0.00 85 1013.8
20260901103012 56 162 0.0 0.0 0.00 0.00 0.00 85 1013.9
20260901102512 56 143 0.0 0.0 0.00 0.00 0.00 85 1014.0
20260901102007 56 129 0.0 0.0 0.00 0.00 0.00 85 1013.8
20260901101502 56 150 0.0 0.0 0.00 0.00 0.00 85 1013.9
20260901101001 56 171 0.0 0.0 0.00 0.00 0.00 84 1013.6
20260901100456 56 179 0.0 0.0 0.00 0.00 0.00 84 1013.8
20260901095955 56 145 0.0 0.0 0.00 0.00 0.00 84 1013.8
20260901095454 56 151 0.0 0.0 0.00 0.00 0.00 84 1013.6
20260901094952 56 150 0.0 0.0 0.00 0.00 0.00 84 1013.5
20260901094447 57 177 0.0 0.0 0.00 0.00 0.00 84 1013.6
20260901093946 57 119 0.0 3.0 0.00 0.00 0.00 83 1013.5
20260901093442 57 133 0.0 5.0 0.00 0.00 0.00 83 1013.6
20260901092941 57 134 0.0 0.0 0.00 0.00 0.00 83 1013.5
20260901092438 57 130 0.0 0.0 0.00 0.00 0.00 83 1013.5
20260901091933 57 139 0.0 0.0 0.00 0.00 0.00 83 1013.4
20260901091428 57 136 0.0 0.0 0.00 0.00 0.00 83 1013.5
20260901090923 57 152 0.0 0.0 0.00 0.00 0.00 83 1013.3
20260901090422 57 148 0.0 0.0 0.00 0.00 0.00 83 1013.5
20260901085918 57 157 0.0 0.0 0.00 0.00 0.00 83 1013.4
20260901085414 57 138 0.0 0.0 0.00 0.00 0.00 83 1013.4
20260901084910 57 157 0.0 0.0 0.00 0.00 0.00 83 1013.4
20260901084406 57 155 0.0 0.0 0.00 0.00 0.00 83 1013.4
20260901083901 57 154 0.0 0.0 0.00 0.00 0.00 83 1013.3
20260901083356 57 145 0.0 0.0 0.00 0.00 0.00 83 1013.5
20260901082854 57 176 0.0 0.0 0.00 0.00 0.00 83 1013.4
20260901082349 57 162 0.0 0.0 0.00 0.00 0.00 83 1013.4
20260901081844 58 183 0.0 0.0 0.00 0.00 0.00 82 1013.5
20260901081340 58 182 0.0 0.0 0.00 0.00 0.00 82 1013.5
20260901080840 58 171 0.0 0.0 0.00 0.00 0.00 82 1013.4
20260901080334 58 153 0.0 0.0 0.00 0.00 0.00 82 1013.4
20260901075828 58 137 0.0 0.0 0.00 0.00 0.00 82 1013.3
20260901075323 58 183 0.0 0.0 0.00 0.00 0.00 82 1013.0
20260901074819 58 188 0.0 0.0 0.00 0.00 0.00 82 1013.0
20260901074313 58 181 0.0 0.0 0.00 0.00 0.00 82 1012.9
20260901073808 58 189 0.0 0.0 0.00 0.00 0.00 81 1013.0
20260901073304 58 184 0.0 0.0 0.00 0.00 0.00 81 1012.9
20260901072800 58 192 0.0 0.0 0.00 0.00 0.00 80 1012.9
20260901072259 59 185 0.0 0.0 0.00 0.00 0.00 80 1012.9
20260901071755 59 186 0.0 0.0 0.00 0.00 0.00 80 1013.0
20260901071253 59 192 0.0 0.0 0.00 0.00 0.00 80 1013.2
20260901070752 59 184 0.0 0.0 0.00 0.00 0.00 79 1012.9
20260901070248 59 172 0.0 0.0 0.00 0.00 0.00 79 1013.1
20260901065747 60 150 0.0 0.0 0.00 0.00 0.00 79 1013.1
20260901065243 60 165 0.0 0.0 0.00 0.00 0.00 79 1013.1
20260901064739 60 175 0.0 0.0 0.00 0.00 0.00 79 1013.1
20260901064235 60 180 0.0 0.0 0.00 0.00 0.00 79 1013.1
20260901063732 60 182 0.0 0.0 0.00 0.00 0.00 78 1012.9
20260901063227 60 187 0.0 0.0 0.00 0.00 0.00 78 1013.0
20260901062724 60 178 0.0 0.0 0.00 0.00 0.00 77 1013.1
20260901062219 60 179 0.0 0.0 0.00 0.00 0.00 77 1012.9
20260901061715 61 176 0.0 0.0 0.00 0.00 0.00 76 1013.1
20260901061214 61 155 0.0 0.0 0.00 0.00 0.00 76 1013.1
20260901060709 61 155 0.0 0.0 0.00 0.00 0.00 75 1013.1
20260901060205 61 183 0.0 0.0 0.00 0.00 0.00 75 1013.1
20260901055700 61 176 0.0 0.0 0.00 0.00 0.00 75 1013.1
20260901055157 62 159 0.0 0.0 0.00 0.00 0.00 74 1013.1
20260901054654 62 180 0.0 0.0 0.00 0.00 0.00 74 1013.0
20260901054149 62 180 0.0 0.0 0.00 0.00 0.00 74 1013.2
20260901053645 62 175 0.0 0.0 0.00 0.00 0.00 73 1013.1
20260901053141 62 188 0.0 0.0 0.00 0.00 0.00 73 1013.2
20260901052636 62 183 0.0 0.0 0.00 0.00 0.00 72 1013.2
20260901052132 62 188 0.0 0.0 0.00 0.00 0.00 71 1013.2
20260901051631 62 166 0.0 0.0 0.00 0.00 0.00 71 1013.2
20260901051130 63 192 0.0 0.0 0.00 0.00 0.00 71 1013.4
20260901050626 63 192 0.0 0.0 0.00 0.00 0.00 70 1013.2
20260901050121 63 192 0.0 0.0 0.00 0.00 0.00 70 1013.4
20260901045615 64 191 0.0 0.0 0.00 0.00 0.00 69 1013.2
20260901045110 64 204 0.0 0.0 0.00 0.00 0.00 68 1013.1
20260901044606 64 166 0.0 0.0 0.00 0.00 0.00 68 1013.2
20260901044102 64 187 0.0 0.0 0.00 0.00 0.00 68 1013.4
20260901043557 65 190 0.0 0.0 0.00 0.00 0.00 67 1013.3
20260901043052 65 178 0.0 0.0 0.00 0.00 0.00 67 1013.2
20260901042552 65 196 0.0 0.0 0.00 0.00 0.00 66 1013.3
20260901042047 65 185 0.0 0.0 0.00 0.00 0.00 65 1013.3
20260901041542 65 184 0.0 0.0 0.00 0.00 0.00 65 1013.2
20260901041037 66 201 0.0 0.0 0.00 0.00 0.00 64 1013.1
20260901040536 66 192 0.0 0.0 0.00 0.00 0.00 64 1013.2
20260901040031 66 215 0.0 0.0 0.00 0.00 0.00 63 1013.1
20260901035529 66 216 0.0 0.0 0.00 0.00 0.00 62 1013.3
20260901035027 67 213 0.0 0.0 0.00 0.00 0.00 61 1013.1
20260901034522 67 213 0.0 0.0 0.00 0.00 0.00 61 1013.1
20260901034017 68 224 0.0 0.0 0.00 0.00 0.00 60 1013.1
20260901033515 68 232 1.0 3.0 0.00 0.00 0.00 60 1013.0
20260901033010 68 258 1.0 5.0 0.00 0.00 0.00 60 1012.7
20260901032504 68 258 0.0 0.0 0.00 0.00 0.00 60 1012.7
20260901032004 68 210 0.0 0.0 0.00 0.00 0.00 60 1012.7
20260901031459 68 258 0.0 0.0 0.00 0.00 0.00 60 1012.7
20260901030954 68 216 0.0 0.0 0.00 0.00 0.00 60 1012.6
20260901030450 68 202 0.0 0.0 0.00 0.00 0.00 60 1012.7
20260901025948 69 211 0.0 0.0 0.00 0.00 0.00 59 1012.5
20260901025444 69 211 0.0 0.0 0.00 0.00 0.00 59 1012.8
20260901024943 69 211 0.0 0.0 0.00 0.00 0.00 59 1012.5
20260901024438 70 207 0.0 0.0 0.00 0.00 0.00 58 1012.6
20260901023936 70 208 0.0 0.0 0.00 0.00 0.00 57 1012.7
20260901023431 71 257 1.0 5.0 0.00 0.00 0.00 57 1012.6
20260901022926 71 256 3.0 5.0 0.00 0.00 0.00 56 1012.7
20260901022422 71 223 0.0 3.0 0.00 0.00 0.00 56 1012.7
20260901021917 71 264 3.0 5.0 0.00 0.00 0.00 55 1012.8
20260901021413 71 308 3.0 7.0 0.00 0.00 0.00 56 1012.8
20260901020908 71 206 0.0 0.0 0.00 0.00 0.00 56 1012.7
20260901020403 72 219 0.0 3.0 0.00 0.00 0.00 55 1012.7
20260901015902 71 227 0.0 0.0 0.00 0.00 0.00 55 1012.7
20260901015359 71 276 0.0 0.0 0.00 0.00 0.00 55 1012.6
20260901014857 71 249 0.0 5.0 0.00 0.00 0.00 55 1012.7
20260901014354 72 280 2.0 5.0 0.00 0.00 0.00 55 1012.6
20260901013849 72 274 1.0 7.0 0.00 0.00 0.00 54 1012.6
20260901013345 72 300 4.0 7.0 0.00 0.00 0.00 54 1012.8
20260901012840 73 272 0.0 5.0 0.00 0.00 0.00 53 1012.6
20260901012335 73 284 3.0 7.0 0.00 0.00 0.00 53 1012.7
20260901011831 74 302 5.0 10.0 0.00 0.00 0.00 51 1012.7
20260901011326 74 298 3.0 7.0 0.00 0.00 0.00 51 1012.7
20260901010819 73 281 4.0 7.0 0.00 0.00 0.00 52 1012.6
20260901010314 73 307 2.0 7.0 0.00 0.00 0.00 52 1012.6
20260901005813 73 308 4.0 7.0 0.00 0.00 0.00 52 1012.8
20260901005309 73 327 6.0 10.0 0.00 0.00 0.00 51 1012.6
20260901004808 74 293 4.0 7.0 0.00 0.00 0.00 50 1012.7
20260901004303 75 282 5.0 7.0 0.00 0.00 0.00 49 1012.7
20260901003803 76 310 6.0 10.0 0.00 0.00 0.00 48 1012.6
20260901003258 76 285 3.0 7.0 0.00 0.00 0.00 47 1012.5
20260901002750 77 281 5.0 7.0 0.00 0.00 0.00 46 1012.8
20260901002246 78 240 2.0 7.0 0.00 0.00 0.00 45 1012.6
20260901001741 79 321 1.0 7.0 0.00 0.00 0.00 44 1012.6
20260901001236 78 263 3.0 10.0 0.00 0.00 0.00 45 1012.6
20260901000726 78 267 3.0 7.0 0.00 0.00 0.00 45 1012.9
20260901000221 77 282 6.0 12.0 0.00 0.00 0.00 45 1013.0
20260831235720 78 273 3.0 7.0 0.00 0.00 0.00 44 1012.9
20260831235216 78 283 4.0 10.0 0.00 0.00 0.00 45 1012.9
20260831234715 80 161 0.0 3.0 0.00 0.00 0.00 42 1013.1
20260831234210 79 196 0.0 12.0 0.00 0.00 0.00 44 1013.0
20260831233705 79 262 1.0 7.0 0.00 0.00 0.00 45 1013.0
20260831233200 78 293 5.0 10.0 0.00 0.00 0.00 45 1013.1
20260831232655 79 224 0.0 7.0 0.00 0.00 0.00 45 1013.2
20260831232152 79 244 0.0 5.0 0.00 0.00 0.00 45 1013.2
20260831231648 78 294 0.0 0.0 0.00 0.00 0.00 45 1013.4
20260831231143 77 196 0.0 10.0 0.00 0.00 0.00 47 1013.3
20260831230638 77 251 1.0 5.0 0.00 0.00 0.00 47 1013.5
20260831230133 76 263 3.0 7.0 0.00 0.00 0.00 48 1013.5
20260831225628 77 292 4.0 10.0 0.00 0.00 0.00 47 1013.4
20260831225123 77 235 0.0 3.0 0.00 0.00 0.00 47 1013.5
20260831224618 77 269 0.0 12.0 0.00 0.00 0.00 47 1013.4
20260831224113 77 266 1.0 7.0 0.00 0.00 0.00 47 1013.6
20260831223603 76 283 6.0 7.0 0.00 0.00 0.00 47 1013.5
20260831223059 76 307 6.0 12.0 0.00 0.00 0.00 48 1013.7
20260831222555 76 264 4.0 10.0 0.00 0.00 0.00 48 1013.9
20260831222054 75 296 6.0 10.0 0.00 0.00 0.00 48 1014.0
20260831221551 75 287 4.0 10.0 0.00 0.00 0.00 48 1014.0
20260831221051 74 262 3.0 12.0 0.00 0.00 0.00 50 1013.9
20260831220550 75 277 7.0 10.0 0.00 0.00 0.00 49 1014.0
20260831220046 75 281 5.0 7.0 0.00 0.00 0.00 49 1014.1
20260831215542 75 329 8.0 12.0 0.00 0.00 0.00 49 1014.3
20260831215037 75 288 4.0 12.0 0.00 0.00 0.00 49 1014.5
20260831214535 75 263 3.0 10.0 0.00 0.00 0.00 49 1014.4
20260831214031 76 268 4.0 7.0 0.00 0.00 0.00 49 1014.3
20260831213527 76 299 2.0 7.0 0.00 0.00 0.00 51 1014.3
20260831213022 75 296 5.0 7.0 0.00 0.00 0.00 50 1014.4
20260831212518 75 319 3.0 7.0 0.00 0.00 0.00 50 1014.5
20260831212013 74 274 4.0 12.0 0.00 0.00 0.00 51 1014.5
20260831211508 75 286 4.0 10.0 0.00 0.00 0.00 50 1014.5
20260831211007 74 289 7.0 12.0 0.00 0.00 0.00 50 1014.8
20260831210502 75 310 6.0 10.0 0.00 0.00 0.00 50 1014.8
20260831205958 75 281 1.0 5.0 0.00 0.00 0.00 51 1014.7
20260831205453 75 288 5.0 7.0 0.00 0.00 0.00 49 1014.9
20260831204949 77 211 0.0 3.0 0.00 0.00 0.00 46 1014.8
20260831204449 77 240 0.0 5.0 0.00 0.00 0.00 47 1015.1
20260831203948 77 242 0.0 3.0 0.00 0.00 0.00 45 1015.1
20260831203443 77 275 6.0 10.0 0.00 0.00 0.00 45 1015.2
20260831202940 77 262 0.0 3.0 0.00 0.00 0.00 47 1014.9
20260831202436 75 220 0.0 7.0 0.00 0.00 0.00 49 1015.0
20260831201929 73 285 6.0 10.0 0.00 0.00 0.00 50 1015.2
20260831201428 74 276 9.0 12.0 0.00 0.00 0.00 48 1015.3
20260831200924 76 153 0.0 7.0 0.00 0.00 0.00 47 1015.5
20260831200420 76 263 0.0 3.0 0.00 0.00 0.00 47 1015.6
20260831195919 75 261 1.0 5.0 0.00 0.00 0.00 49 1015.6
20260831195415 75 278 2.0 3.0 0.00 0.00 0.00 49 1015.8
20260831194910 76 274 0.0 3.0 0.00 0.00 0.00 47 1015.8
20260831194406 75 295 1.0 5.0 0.00 0.00 0.00 48 1015.8
20260831193905 75 207 0.0 0.0 0.00 0.00 0.00 48 1015.8
20260831193400 75 299 0.0 5.0 0.00 0.00 0.00 48 1015.8
20260831192855 73 212 0.0 3.0 0.00 0.00 0.00 50 1015.9
20260831192355 72 283 7.0 12.0 0.00 0.00 0.00 52 1015.9
20260831191851 73 211 1.0 5.0 0.00 0.00 0.00 51 1016.1
20260831191347 73 217 0.0 3.0 0.00 0.00 0.00 51 1016.3
20260831190843 75 244 0.0 3.0 0.00 0.00 0.00 48 1016.3
20260831190342 73 170 0.0 3.0 0.00 0.00 0.00 50 1016.4
20260831185842 72 223 0.0 7.0 0.00 0.00 0.00 51 1016.5
20260831185338 74 245 0.0 0.0 0.00 0.00 0.00 48 1016.5
20260831184837 75 75 0.0 0.0 0.00 0.00 0.00 48 1016.5
20260831184332 71 270 0.0 12.0 0.00 0.00 0.00 54 1016.9
20260831183827 71 306 0.0 12.0 0.00 0.00 0.00 51 1017.0
20260831183326 73 304 2.0 5.0 0.00 0.00 0.00 51 1016.8
20260831182826 72 255 0.0 0.0 0.00 0.00 0.00 51 1016.7
20260831182321 71 253 0.0 7.0 0.00 0.00 0.00 54 1016.9
20260831181817 73 238 0.0 0.0 0.00 0.00 0.00 52 1017.1
20260831181312 73 71 0.0 5.0 0.00 0.00 0.00 51 1017.1
20260831180807 72 242 0.0 0.0 0.00 0.00 0.00 54 1017.2
20260831180301 72 263 0.0 0.0 0.00 0.00 0.00 53 1017.1
20260831175801 70 239 0.0 7.0 0.00 0.00 0.00 55 1017.3
20260831175257 72 247 0.0 0.0 0.00 0.00 0.00 53 1017.3
20260831174752 69 137 0.0 5.0 0.00 0.00 0.00 58 1017.2
20260831174248 70 232 0.0 0.0 0.00 0.00 0.00 58 1017.4
20260831173747 69 287 0.0 0.0 0.00 0.00 0.00 58 1017.5
20260831173241 67 291 0.0 0.0 0.00 0.00 0.00 61 1017.3
20260831172736 68 246 0.0 0.0 0.00 0.00 0.00 60 1017.4
20260831172232 67 267 0.0 0.0 0.00 0.00 0.00 60 1017.7
20260831171726 66 276 0.0 0.0 0.00 0.00 0.00 62 1017.5
20260831171224 66 268 0.0 0.0 0.00 0.00 0.00 63 1017.5
20260831170720 66 235 0.0 0.0 0.00 0.00 0.00 63 1017.5
20260831170216 66 254 0.0 0.0 0.00 0.00 0.00 64 1017.7
20260831165712 68 263 0.0 0.0 0.00 0.00 0.00 61 1017.9
20260831165208 67 86 0.0 0.0 0.00 0.00 0.00 63 1017.4
20260831164704 66 201 0.0 0.0 0.00 0.00 0.00 66 1017.9
20260831164200 65 109 0.0 0.0 0.00 0.00 0.00 65 1017.9
20260831163655 66 221 0.0 0.0 0.00 0.00 0.00 64 1018.0
20260831163151 65 69 0.0 0.0 0.00 0.00 0.00 65 1018.1
20260831162650 62 243 0.0 0.0 0.00 0.00 0.00 69 1018.1
20260831162148 64 154 0.0 0.0 0.00 0.00 0.00 66 1018.1
20260831161644 63 133 0.0 0.0 0.00 0.00 0.00 67 1018.2
20260831161140 63 274 0.0 0.0 0.00 0.00 0.00 66 1018.2
20260831160639 61 221 0.0 0.0 0.00 0.00 0.00 70 1018.4
20260831160135 60 246 0.0 0.0 0.00 0.00 0.00 71 1018.5
20260831155634 59 240 0.0 0.0 0.00 0.00 0.00 72 1018.3
20260831155130 60 267 0.0 0.0 0.00 0.00 0.00 70 1018.3
20260831154625 60 178 0.0 0.0 0.00 0.00 0.00 71 1018.5
20260831154120 58 156 0.0 0.0 0.00 0.00 0.00 74 1018.4